Theta_e
306 307 307 307 307 307 307 307 307 307 309 309 311 312 312 312 310 310 311 311 311 312 313 314 314 315 315 315 315 315 315 315 315 316 317 318 318 315 314 315 315 315 314 312 312 313 313 314 314 314 316 316 316 318 318 316 315 316 317 314 311 313 313 313 315 315 315 316 315 313 312 314 315 313 311 310 311 312 312 313 313 312 310 309 309 308 308 309
306 306 307 307 307 307 308 308 308 307 308 309 310 312 313 314 312 311 312 312 313 314 314 314 315 315 315 315 315 314 315 315 315 316 316 317 316 315 315 316 316 315 312 312 312 312 313 313 314 314 315 316 315 318 319 317 316 316 316 314 313 314 313 312 313 313 314 315 315 313 311 312 314 313 312 313 315 313 314 315 314 313 310 309 310 310 309 309
306 305 306 307 307 307 308 309 308 308 308 309 310 312 312 314 313 312 313 313 314 314 315 315 315 315 315 315 315 314 315 315 314 315 316 316 315 315 316 315 314 313 312 312 312 312 313 313 314 314 315 315 315 318 318 317 317 316 316 315 315 315 313 312 312 313 313 313 314 314 310 311 313 312 311 313 314 314 314 315 313 314 311 310 311 310 310 310
306 305 306 307 307 308 309 310 309 308 309 309 310 311 312 314 313 313 313 314 314 315 315 315 315 316 315 315 315 315 315 317 315 313 314 316 316 315 315 314 313 313 312 312 312 313 313 314 314 314 315 314 315 316 317 317 317 316 315 315 315 313 313 313 312 312 312 311 313 314 310 312 312 310 311 312 314 315 314 312 311 311 311 310 310 309 309 310
307 307 306 306 307 308 308 310 310 309 309 310 310 311 312 313 313 313 314 314 315 315 316 316 316 316 316 316 315 315 317 318 314 312 314 315 315 314 313 314 314 313 313 313 313 313 314 314 314 314 315 314 315 315 315 314 315 316 315 315 314 312 314 314 312 312 310 309 311 312 312 313 311 310 311 312 313 314 312 309 308 309 309 308 308 309 309 309
308 307 307 307 307 308 308 310 310 310 310 310 311 312 312 313 314 314 314 315 315 316 316 316 317 316 316 316 316 316 318 317 313 313 315 314 314 313 312 313 314 313 313 313 313 314 314 314 314 315 314 313 314 313 313 313 313 315 315 313 313 313 314 314 312 312 310 310 312 312 312 310 311 312 311 311 312 311 308 307 307 307 307 307 307 308 308 308
308 306 307 308 307 308 308 309 310 310 310 310 311 312 312 313 314 315 315 316 316 316 316 317 317 317 317 317 317 317 319 318 315 316 317 315 313 313 313 313 314 314 313 313 313 314 314 314 314 314 314 313 313 313 312 314 314 314 315 314 313 312 313 314 313 311 310 311 312 310 309 310 312 312 309 309 310 308 307 307 307 307 307 307 307 307 307 307
310 309 308 308 308 308 308 309 309 311 312 311 312 313 314 314 315 316 315 316 316 317 317 317 318 318 318 317 318 318 319 319 317 318 319 316 314 313 313 313 314 314 313 314 313 314 314 313 313 312 314 313 312 313 310 313 315 314 314 314 312 311 312 313 310 310 310 310 310 308 310 312 311 310 309 309 309 306 307 307 307 307 307 306 306 305 306 306
313 312 310 310 309 309 309 309 309 312 313 312 313 314 315 315 315 316 316 316 317 318 318 318 318 318 317 317 318 319 319 318 317 318 319 317 316 314 314 314 314 314 313 313 313 314 314 313 313 312 313 312 311 312 310 312 315 313 314 313 312 312 312 311 310 310 310 309 308 309 312 312 308 309 310 309 307 307 306 306 306 306 306 305 304 304 305 305
313 313 313 311 311 310 310 310 310 313 314 314 314 315 316 316 316 317 317 317 318 318 318 318 318 317 317 317 319 319 318 318 319 319 318 318 318 316 316 316 315 314 313 312 312 314 314 314 313 312 313 311 310 311 310 312 313 312 312 311 311 311 310 310 311 311 310 309 308 310 313 311 307 309 311 308 306 307 306 306 306 306 305 304 304 304 305 304
313 314 314 312 312 312 311 312 312 314 316 316 315 315 316 317 317 318 318 319 319 318 319 318 318 317 317 317 319 319 318 319 321 319 318 318 317 317 316 316 315 314 313 312 313 313 313 313 311 311 313 312 311 310 309 310 310 310 310 311 312 311 311 311 311 310 310 310 308 309 311 309 307 310 310 306 305 307 307 307 305 305 305 304 303 303 304 304
314 314 314 313 313 313 312 312 313 315 316 316 316 316 317 318 318 319 319 319 319 319 318 318 317 317 317 317 318 318 316 318 320 319 318 317 317 317 316 315 314 313 313 313 313 312 312 312 311 312 312 312 312 311 310 308 308 309 309 313 314 313 314 313 310 308 309 311 307 308 312 311 310 310 307 305 306 307 307 307 306 305 304 304 303 303 304 303
316 315 314 314 313 314 314 312 313 315 315 316 317 317 318 319 319 320 320 321 320 319 318 317 317 316 316 317 317 316 315 316 318 318 317 317 317 316 315 314 314 313 312 313 313 312 312 311 311 312 310 312 313 310 310 308 308 310 310 312 315 316 316 312 309 308 310 310 307 309 315 315 311 308 306 306 307 308 309 308 306 305 304 304 304 303 303 302
317 317 315 315 314 315 314 313 314 315 315 316 317 318 319 320 320 320 321 321 320 319 318 317 317 316 316 316 316 315 315 315 316 316 316 316 316 315 314 314 313 313 313 313 313 312 311 310 311 312 310 311 311 309 310 310 310 312 312 312 314 317 317 313 309 310 312 309 306 310 316 317 312 308 308 306 306 307 309 309 306 305 304 304 304 303 302 302
317 318 317 316 315 315 314 314 314 315 316 317 317 318 320 320 320 321 321 321 320 318 317 316 316 316 316 316 316 315 315 316 316 316 316 316 315 315 314 313 314 314 314 313 313 312 311 311 312 313 310 309 310 311 314 314 312 312 314 316 316 316 317 316 311 309 313 310 307 312 316 317 312 309 309 306 305 307 309 309 306 305 304 304 304 302 302 302
317 318 318 316 314 314 315 314 314 316 316 317 318 319 320 320 320 320 320 320 319 317 317 317 315 315 317 317 315 314 314 316 316 317 317 316 315 315 313 313 313 312 312 312 312 311 311 312 311 311 311 310 312 315 315 316 315 314 315 318 318 316 317 317 311 307 310 310 309 312 315 317 313 308 308 306 306 308 309 308 305 305 304 303 303 302 302 302
316 317 317 316 315 314 314 314 315 316 316 317 319 320 320 320 319 319 319 318 318 317 317 318 316 316 317 316 315 315 314 314 316 317 318 316 315 314 313 312 311 311 312 311 311 312 312 312 310 311 312 312 313 315 317 319 319 316 315 317 317 316 315 316 315 310 308 310 312 312 312 316 313 308 308 307 306 308 309 307 305 305 304 303 303 302 301 301
317 317 316 316 315 315 315 314 315 315 315 317 319 319 319 319 319 318 318 317 317 316 317 316 316 318 319 317 316 316 313 313 315 317 318 316 314 314 314 312 311 312 313 313 312 312 312 312 312 315 314 313 313 316 319 320 320 319 318 317 317 315 314 316 316 312 309 311 313 313 313 315 313 309 308 307 305 307 308 306 305 304 303 303 302 301 301 300
317 317 318 318 317 316 315 314 315 316 316 318 319 318 318 317 317 317 317 317 317 318 320 318 317 320 320 317 314 313 312 313 315 316 316 315 313 313 313 312 312 314 314 315 314 312 313 314 314 317 317 315 315 316 319 320 319 319 318 318 318 317 316 316 316 311 310 312 313 314 314 315 315 313 309 306 305 307 307 305 304 304 303 303 302 301 301 300
318 317 317 318 317 316 315 314 315 316 316 318 318 318 318 317 318 318 317 316 317 318 319 319 318 319 319 316 313 312 313 313 314 314 314 313 313 313 312 312 313 314 314 317 316 312 312 317 318 319 320 318 316 316 316 316 315 315 316 317 317 317 317 317 315 310 309 312 314 314 314 314 314 314 311 307 306 306 306 305 305 304 303 302 302 301 300 299
317 316 317 317 316 315 315 314 315 316 317 317 317 318 318 319 319 319 318 318 318 318 318 317 317 318 318 315 313 313 314 313 313 313 313 312 312 314 313 312 314 315 314 315 314 310 311 317 320 319 318 316 315 315 313 313 313 313 315 316 317 317 317 316 313 310 308 311 315 314 313 314 314 314 311 306 307 307 306 306 305 304 303 302 301 300 299 299
317 317 318 318 316 315 315 314 315 316 316 317 317 317 317 317 318 317 317 320 320 318 317 316 316 316 315 314 312 313 315 316 315 313 313 311 311 314 314 312 315 316 313 313 313 313 314 318 319 316 313 311 311 311 312 312 313 314 314 316 317 317 317 316 312 310 309 311 315 314 313 314 315 313 309 306 307 306 305 305 304 303 303 301 301 300 299 299
319 318 318 318 316 315 315 314 315 316 317 317 317 317 317 317 316 316 318 321 321 318 316 316 316 316 316 315 313 313 316 318 317 315 312 311 311 312 313 313 314 315 312 313 316 318 318 317 316 313 310 311 311 310 311 312 313 314 315 316 318 317 317 318 314 310 310 311 313 313 313 315 315 313 307 305 305 304 302 302 302 302 302 301 300 299 299 299
319 318 317 316 315 315 314 314 315 316 317 317 317 318 317 317 316 317 318 321 322 318 315 315 316 317 317 316 314 315 316 317 318 316 312 312 312 311 313 313 314 314 313 314 316 319 320 315 311 311 310 312 313 312 312 314 315 316 315 316 319 318 316 318 315 311 311 311 311 312 315 317 316 314 310 305 303 303 302 301 301 300 300 299 299 298 298 298
318 318 317 316 315 315 314 315 316 316 317 317 318 319 317 316 315 316 317 321 324 319 315 315 315 317 316 315 315 315 316 316 316 314 312 311 312 312 312 312 313 316 315 313 314 317 318 312 310 312 312 313 315 315 315 317 319 318 316 316 316 317 316 316 314 313 315 317 312 312 320 321 315 314 312 307 305 304 302 302 302 300 299 299 299 298 297 296
318 317 317 316 315 315 314 316 316 316 317 317 318 319 318 316 315 315 317 323 326 321 317 317 318 318 316 314 314 314 318 318 312 310 311 311 311 312 313 312 313 315 315 313 314 317 315 310 311 315 315 315 316 317 316 316 318 320 318 315 315 315 316 315 314 315 319 320 313 310 319 322 318 317 314 308 307 306 303 303 302 300 300 299 299 298 297 297
319 317 317 317 315 315 315 316 316 316 318 318 319 319 318 316 315 314 318 326 327 323 319 316 316 317 314 312 313 317 323 317 310 309 310 311 311 311 315 314 313 313 311 314 318 317 313 311 313 316 316 316 316 317 316 315 318 320 317 315 315 315 315 315 314 316 318 318 314 312 316 319 320 319 312 307 309 308 305 304 302 301 301 300 299 298 297 297
319 317 317 316 315 315 316 316 317 317 318 319 318 319 317 315 314 315 323 331 327 320 318 315 312 312 310 309 311 314 314 312 315 313 307 308 311 311 316 315 315 314 310 315 323 317 313 315 315 315 316 316 317 317 315 314 318 318 313 312 313 314 315 315 315 316 315 315 318 317 315 318 320 317 312 308 310 310 308 305 303 302 301 300 299 298 297 296
319 318 317 316 315 315 315 317 317 317 318 318 318 318 316 314 314 319 326 331 325 317 316 314 311 310 310 310 310 309 307 308 314 312 307 308 310 310 314 313 313 314 310 313 321 317 312 311 312 314 316 317 316 312 311 315 317 313 310 310 311 312 313 313 315 315 313 315 321 319 316 319 321 318 315 312 312 314 311 307 304 303 301 300 299 298 297 295
321 319 317 316 316 315 315 316 317 318 318 317 317 316 315 316 321 327 329 330 326 317 312 312 312 312 313 314 313 309 308 309 309 309 309 310 309 308 309 309 310 313 312 312 316 314 308 306 308 313 314 313 311 307 307 313 313 309 311 312 312 312 311 312 313 313 315 319 319 316 315 318 319 318 317 316 313 312 311 307 305 303 302 301 300 298 297 295
321 320 318 317 316 315 315 316 316 318 318 316 315 315 318 321 324 330 330 327 324 318 312 313 312 312 314 317 316 310 308 309 308 310 311 310 310 310 310 311 313 314 315 315 315 313 309 309 311 312 310 309 310 308 307 307 307 309 314 314 315 315 313 313 313 313 320 323 315 310 311 315 318 318 315 314 310 308 309 308 306 304 302 301 300 298 296 295
321 320 319 317 317 315 316 317 316 318 318 316 315 317 321 324 325 329 330 327 324 319 316 315 312 312 315 316 316 311 310 312 310 312 313 312 313 313 314 317 317 318 320 319 318 315 314 314 312 310 308 309 313 313 310 308 308 311 314 315 319 319 317 318 317 316 320 319 311 308 310 314 317 316 314 312 309 307 308 307 306 305 303 302 300 298 296 295
322 320 319 317 317 316 315 317 316 317 318 315 316 319 322 326 327 327 328 328 325 318 315 314 311 313 315 316 315 312 312 313 311 311 312 312 315 315 315 315 315 319 320 319 319 318 317 315 312 312 311 310 314 316 315 314 311 312 315 317 320 321 321 323 319 315 317 314 308 306 310 314 315 315 314 311 307 304 304 304 304 305 304 302 300 298 297 295
322 321 319 317 317 316 315 316 316 317 317 315 318 320 321 326 327 325 327 327 321 315 313 313 312 313 315 316 315 313 314 314 311 312 312 312 315 317 315 313 312 314 315 316 319 319 320 318 313 314 314 311 313 315 317 316 313 313 315 316 318 319 321 322 319 316 317 314 308 306 310 316 316 313 308 304 302 300 301 301 301 303 303 302 300 298 297 295
322 321 319 318 317 316 316 316 316 318 317 316 320 321 322 326 323 323 328 326 319 315 312 312 313 316 316 314 313 312 314 314 311 311 313 314 316 317 317 314 312 312 314 317 317 315 319 318 313 312 311 310 313 314 314 315 315 313 311 314 317 317 316 316 314 313 313 314 313 310 312 314 313 310 303 300 301 300 300 300 300 302 303 302 300 298 297 296
321 319 318 317 316 316 316 316 317 318 317 319 322 322 323 325 323 324 326 322 319 316 312 313 314 317 318 315 314 314 314 313 312 312 314 314 314 315 316 316 313 312 314 317 316 314 316 316 312 309 309 308 310 312 312 314 316 312 312 315 315 313 314 315 313 311 311 317 318 313 314 313 311 311 305 302 304 303 301 301 302 302 302 301 300 298 297 296
319 317 317 317 316 316 316 316 317 317 317 321 324 322 321 323 324 326 323 319 317 314 314 317 317 317 318 317 316 315 315 314 312 312 314 313 314 314 314 314 313 312 313 314 315 315 316 316 312 310 312 308 305 309 311 312 313 312 314 316 313 311 314 315 317 316 316 320 319 314 316 316 315 315 309 305 308 307 304 302 302 302 301 301 301 299 298 297
317 316 317 317 317 317 316 316 316 316 318 322 325 323 322 322 323 323 321 318 317 314 317 322 321 319 318 318 318 315 315 315 312 312 314 314 314 314 313 313 313 312 312 312 313 315 315 317 313 309 311 309 305 310 312 310 311 312 312 313 313 315 316 315 317 320 320 322 321 316 315 316 316 316 312 309 311 310 306 302 301 302 301 301 302 300 298 297
316 317 318 317 317 316 316 316 316 316 319 322 323 322 322 321 320 321 320 319 318 318 321 324 324 322 319 317 318 316 315 316 313 313 315 315 315 314 312 313 313 311 310 311 313 314 313 317 316 309 308 309 308 312 314 312 310 310 310 310 311 313 316 316 316 318 320 321 320 319 317 316 316 315 313 312 312 311 309 304 303 303 302 302 302 301 299 298
315 318 319 316 316 317 316 316 317 318 321 322 321 321 320 319 319 319 319 320 321 321 322 325 325 324 322 318 318 317 317 317 313 314 317 316 314 314 311 312 313 310 309 310 312 314 312 315 317 311 308 311 312 313 315 314 312 311 312 312 312 311 312 313 314 314 316 318 318 318 318 317 314 312 313 313 312 311 310 308 306 304 303 302 302 301 300 298
315 320 318 314 315 316 315 317 318 319 321 321 320 320 319 319 319 318 317 318 321 320 320 324 325 324 324 322 320 318 318 319 315 316 319 316 315 317 313 312 313 311 311 312 312 315 314 314 316 313 311 313 314 311 311 313 314 313 313 313 314 313 313 315 316 313 313 315 316 316 317 317 312 309 310 311 310 308 308 309 309 306 304 303 302 302 301 299
316 321 316 312 314 316 316 319 320 319 320 320 320 319 318 318 319 317 315 316 320 320 318 321 323 323 323 323 322 320 319 319 317 319 321 318 318 320 314 312 313 313 314 316 315 315 315 314 315 315 313 313 311 307 304 307 311 313 313 314 314 314 313 315 316 314 312 313 313 313 315 316 310 305 305 307 306 304 303 305 306 305 303 302 301 301 300 298
318 317 311 309 313 315 317 320 320 319 320 319 318 318 318 317 317 317 316 316 318 320 319 320 320 321 322 322 321 319 319 318 318 320 322 320 318 315 310 310 313 314 315 316 315 314 314 315 316 316 315 311 308 306 304 304 308 312 313 312 313 313 314 314 314 313 312 313 313 313 315 315 310 303 303 303 302 302 300 300 302 302 301 301 300 300 299 297
314 312 308 308 311 314 319 322 320 320 319 318 317 317 317 316 317 317 317 317 318 319 320 320 319 320 321 320 319 319 320 319 318 319 320 320 316 310 309 311 312 314 315 315 316 315 314 315 316 317 318 316 313 312 311 309 310 312 312 311 312 313 313 313 312 311 312 314 314 313 314 315 311 303 302 302 302 302 301 299 300 301 301 301 300 299 298 297
312 311 309 308 308 311 316 319 320 320 319 318 317 317 316 316 316 317 317 317 318 319 319 319 318 319 320 319 319 320 319 319 319 318 318 319 315 309 309 310 311 313 316 317 319 317 315 317 317 317 319 320 319 318 315 314 312 312 312 310 311 312 312 312 313 312 314 315 314 313 313 314 311 306 305 306 305 305 303 301 300 300 301 301 300 300 299 297
315 315 311 309 308 309 311 312 315 319 319 318 318 317 317 317 315 315 316 317 317 318 318 317 317 318 318 318 319 319 318 318 318 317 317 318 315 310 306 308 310 313 313 315 318 317 316 316 317 317 319 319 317 314 312 312 313 312 311 311 311 312 311 313 314 314 314 314 313 313 313 314 313 310 308 309 309 308 305 303 301 300 300 300 300 299 298 297
314 315 312 311 311 311 311 311 313 316 318 318 318 317 317 318 316 315 315 316 316 316 316 316 315 317 318 317 317 317 316 316 316 316 316 317 315 309 304 306 310 311 311 311 314 316 316 315 316 317 318 317 316 313 312 313 313 312 312 312 312 311 311 313 314 314 313 313 313 314 313 314 313 311 310 311 310 308 306 304 302 302 301 300 300 299 298 297
310 312 311 310 312 312 312 312 312 313 315 316 316 316 317 317 316 316 315 314 315 316 316 315 315 316 316 315 315 315 314 315 314 314 315 316 315 311 308 308 308 308 310 311 311 313 315 315 315 316 316 316 315 313 313 313 312 311 312 312 311 311 311 312 313 313 313 313 313 312 312 313 312 310 310 311 309 308 307 305 303 303 302 300 299 299 298 297
306 308 307 307 310 311 311 311 311 311 311 312 314 314 316 316 315 315 314 313 314 315 316 315 314 314 315 314 314 314 314 315 315 313 313 315 315 314 312 312 309 306 309 312 311 312 314 314 314 313 314 315 313 311 311 311 311 311 311 311 311 311 311 310 311 311 312 312 312 311 312 311 310 310 309 310 309 307 305 304 302 302 301 300 299 299 298 298
306 307 306 306 307 307 308 309 310 311 310 310 312 312 312 314 315 314 313 313 314 314 315 315 313 313 314 313 314 314 314 315 316 314 313 314 314 313 312 314 311 307 308 311 311 310 312 313 312 312 314 314 312 311 310 309 310 310 310 310 311 310 310 309 309 309 310 310 310 310 311 310 310 309 309 309 308 305 304 303 302 302 302 300 300 299 299 298
300 300 302 306 307 304 306 307 307 309 310 309 311 311 310 312 312 312 311 311 313 314 314 314 313 313 312 313 313 313 313 315 317 316 315 314 314 314 313 314 313 310 308 309 310 310 310 310 308 310 314 313 310 310 309 308 309 310 310 310 310 310 310 309 309 309 309 310 310 310 310 310 309 308 308 308 306 304 304 304 303 303 302 300 300 300 299 299
298 297 300 306 308 304 305 306 306 308 310 309 309 309 310 310 310 311 311 310 312 312 312 313 313 312 312 312 313 313 313 314 315 314 313 313 314 314 313 313 312 311 309 308 307 308 309 309 308 310 313 311 309 309 308 307 308 309 309 309 309 308 308 308 309 308 308 309 310 310 310 310 308 307 307 305 304 303 304 304 303 304 302 300 299 300 300 299
Wind_Speed
6 6 6 6 6 6 6 6 5 5 4 4 4 4 4 3 3 2 2 2 3 4 4 6 6 7 8 9 10 10 12 11 8 8 5 4 2 3 3 3 4 3 3 2 1 1 2 3 4 3 2 2 2 1 1 2 1 1 1 1 0 1 1 2 4 3 1 2 3 2 2 3 2 0 1 2 4 4 5 4 4 1 4 7 7 6 7 9
6 6 6 6 6 7 6 6 6 6 4 4 3 3 3 3 2 2 2 3 3 4 5 6 6 7 8 9 9 10 12 8 5 8 7 6 5 6 6 5 4 3 3 1 1 1 1 3 3 2 1 1 1 1 0 1 2 1 1 1 0 1 1 1 2 3 2 1 2 1 1 3 3 1 1 3 3 3 7 4 3 3 6 7 8 10 10 12
6 7 6 7 7 6 7 6 6 6 5 4 3 3 3 2 2 2 2 2 3 3 5 5 6 7 7 8 9 10 11 4 3 5 6 6 6 7 6 5 4 5 3 1 2 1 2 4 3 2 1 1 2 1 0 1 2 0 1 2 1 1 0 2 3 2 2 1 3 1 2 4 3 1 1 3 6 6 5 3 1 1 2 4 9 11 12 12
6 7 7 7 7 6 6 5 5 5 4 4 3 3 3 2 1 1 1 2 3 4 4 5 6 6 6 8 7 9 9 2 2 1 3 4 6 6 6 6 5 5 3 1 3 4 5 6 4 3 1 1 2 1 0 2 2 1 1 2 3 1 1 3 4 3 1 1 4 2 2 4 1 1 3 3 6 5 1 4 5 4 4 5 7 9 10 10
6 7 7 7 7 6 6 5 4 4 4 4 4 3 3 2 1 1 1 2 3 3 4 5 5 5 6 6 5 8 7 2 3 1 1 3 4 5 6 6 5 4 3 3 5 6 6 5 3 2 1 1 1 1 1 3 2 1 0 2 3 1 1 2 3 2 2 2 3 3 3 2 1 2 4 4 6 3 2 5 5 4 5 5 5 6 8 9
6 6 7 7 8 7 6 6 5 5 5 4 4 3 3 2 1 1 1 2 2 3 4 4 5 5 5 5 5 5 4 2 2 3 2 3 4 5 6 6 5 4 3 4 6 5 4 2 1 1 1 1 1 0 2 1 1 2 1 1 1 2 2 1 2 2 3 3 4 3 2 1 3 4 3 5 4 3 4 4 4 5 5 4 5 6 7 9
6 6 7 7 8 7 7 7 6 5 5 4 4 3 3 2 1 1 1 2 2 3 4 4 4 5 4 5 5 3 1 2 2 5 3 3 4 4 5 5 4 4 3 4 5 3 3 2 2 2 1 1 1 1 2 1 1 3 0 2 1 2 4 2 1 2 4 6 5 1 2 4 5 4 1 3 2 5 4 4 5 5 5 5 7 8 8 8
4 5 5 6 7 7 7 7 6 5 4 4 3 3 2 2 1 2 2 2 3 3 3 4 4 4 4 3 3 1 1 1 3 4 4 4 4 5 5 4 3 3 3 4 4 3 3 3 2 3 1 1 2 2 1 2 3 3 1 2 1 2 5 3 3 5 6 7 4 1 6 6 3 2 1 1 5 5 3 5 4 5 7 8 8 8 8 8
4 4 4 5 6 6 6 6 6 5 3 4 4 3 2 2 2 2 2 2 3 3 3 3 4 4 3 2 2 3 2 3 4 3 3 4 4 5 4 4 4 4 4 4 4 5 4 2 3 3 1 2 2 2 2 3 2 1 1 1 2 3 4 4 5 7 5 3 2 4 9 4 1 1 1 3 5 4 4 5 4 5 7 8 8 8 9 10
6 3 3 4 5 5 6 6 6 5 3 4 4 3 3 3 2 2 2 2 2 3 3 3 3 3 2 3 1 3 1 4 5 4 4 5 4 4 4 4 4 4 4 4 5 5 2 2 4 3 1 3 3 2 2 3 1 1 0 2 5 4 4 4 6 5 2 3 4 7 9 1 3 2 2 4 5 4 4 5 5 6 7 7 6 7 8 9
5 3 4 5 4 5 6 6 6 5 4 3 4 4 3 3 2 2 2 2 2 2 3 3 2 1 2 2 3 3 3 5 5 5 5 5 3 2 2 4 5 5 5 4 5 5 2 5 8 4 1 3 4 2 1 1 2 1 1 4 6 5 6 7 7 4 2 3 4 6 5 3 3 3 1 3 4 3 4 6 5 6 6 5 5 5 6 7
5 5 5 4 4 5 6 6 7 5 4 3 4 4 3 3 3 3 2 2 2 2 2 2 1 1 1 1 4 4 4 5 6 6 5 2 1 2 3 4 5 5 5 4 6 6 4 8 10 3 1 4 4 2 2 2 1 0 1 5 6 7 7 5 2 1 1 1 2 4 5 4 5 3 3 2 4 5 4 5 5 5 4 4 4 4 5 6
8 8 7 5 5 5 6 6 7 6 4 4 4 3 3 3 3 3 2 3 2 1 1 0 0 2 1 2 3 6 7 8 7 6 4 3 3 3 4 5 6 5 5 4 7 7 6 9 8 3 2 2 1 2 3 3 1 1 1 4 6 8 4 2 2 1 3 1 2 3 5 2 6 4 3 2 4 5 4 4 3 3 3 3 3 3 5 7
8 9 9 8 7 5 6 7 7 7 4 3 4 3 3 2 3 3 3 3 2 1 1 1 1 3 1 3 2 5 8 9 8 7 5 4 4 5 5 5 5 5 5 5 7 8 7 8 7 5 2 2 2 4 3 2 0 1 1 1 3 5 1 4 3 1 3 1 0 4 6 2 6 5 3 1 4 5 3 3 3 2 3 2 3 3 4 6
10 10 9 10 8 6 6 6 7 6 4 3 4 3 2 2 3 3 2 2 1 0 1 2 2 2 1 4 3 4 6 7 7 7 6 7 7 6 6 7 7 7 6 6 8 9 8 8 6 4 2 1 3 5 2 1 1 0 3 3 2 2 3 1 3 1 2 1 0 4 5 2 5 6 3 2 4 6 4 3 3 2 3 2 2 3 3 4
11 10 10 10 9 7 6 6 7 6 4 3 3 2 2 2 2 2 1 0 1 2 2 1 3 2 3 2 2 3 4 5 6 7 8 9 8 7 10 10 9 9 9 9 10 11 8 6 2 1 2 2 4 3 2 2 2 2 3 5 2 3 4 2 3 1 2 1 1 4 5 4 4 6 2 2 2 5 5 3 3 2 3 2 2 2 2 2
11 11 10 8 9 9 6 6 6 5 3 3 2 1 1 1 0 0 1 2 3 3 2 2 4 2 3 1 2 3 3 4 6 7 9 10 8 10 12 8 7 8 10 10 9 7 4 3 1 1 1 1 3 3 3 5 4 2 3 4 3 4 4 4 1 3 1 1 2 3 5 8 2 7 2 2 1 4 4 4 3 3 2 2 1 2 2 2
12 10 9 9 9 10 8 5 5 4 2 2 2 1 1 1 1 2 3 5 5 4 1 2 4 2 4 3 2 2 4 5 7 8 9 9 10 12 10 6 5 8 9 6 3 2 1 1 1 2 2 2 4 5 5 5 4 3 3 3 3 4 5 7 4 1 2 2 4 4 7 10 6 7 5 1 1 4 3 3 3 3 2 2 1 2 2 3
11 10 10 10 10 11 9 5 6 4 2 2 2 4 4 3 2 2 4 5 3 2 1 3 5 2 2 2 2 4 6 7 7 7 8 10 11 10 7 7 6 6 6 4 2 2 1 2 2 3 5 6 7 9 9 4 2 4 3 4 5 5 6 8 5 1 1 4 7 8 10 11 11 7 6 4 2 3 3 3 3 3 3 2 2 2 2 3
12 12 11 11 11 12 9 5 7 3 3 3 4 6 3 2 1 1 3 4 6 4 1 4 7 1 1 1 4 7 7 7 4 5 10 11 12 10 6 5 4 2 4 4 4 2 1 4 6 7 7 8 10 11 7 1 2 1 2 4 5 6 8 8 4 2 2 4 7 8 10 10 13 10 3 6 3 4 5 4 4 3 3 2 2 2 2 3
14 13 11 10 11 12 8 7 8 4 3 4 5 4 2 2 2 1 1 5 10 9 5 3 4 4 1 3 8 10 5 3 1 4 11 12 12 9 4 4 5 4 3 2 4 2 2 7 9 8 4 2 5 7 4 1 3 3 4 5 6 7 8 7 3 1 3 3 6 6 8 10 12 9 2 5 4 4 4 5 5 4 3 2 3 3 3 3
15 14 13 12 12 12 8 7 9 4 5 5 5 3 3 2 2 1 0 4 7 10 8 3 3 6 3 3 8 9 2 3 4 5 11 11 7 6 5 6 7 5 4 4 3 2 4 9 9 4 4 4 2 3 5 6 6 4 3 5 6 5 6 6 2 1 2 3 4 4 6 10 12 5 5 3 3 3 2 2 2 4 4 3 3 3 3 3
17 15 15 14 12 12 8 7 9 4 7 6 5 5 2 2 1 1 1 4 3 5 6 5 6 8 6 4 7 10 6 6 6 6 12 12 5 3 6 8 7 4 6 8 7 5 5 6 6 5 6 5 3 3 5 4 4 5 4 5 7 3 2 5 1 3 2 2 3 4 6 11 11 3 6 3 2 3 2 2 2 2 3 3 3 2 2 3
18 16 15 14 13 11 7 7 7 6 9 9 10 11 4 0 2 2 1 3 4 3 4 5 5 6 7 4 8 13 8 4 3 5 14 14 6 3 5 7 6 5 7 12 10 9 5 1 1 7 7 8 6 5 6 5 5 6 7 8 8 4 5 7 1 2 2 2 1 4 7 8 6 3 3 3 3 3 3 4 4 3 3 3 3 2 2 3
19 17 15 14 12 10 8 7 7 10 9 8 12 13 7 3 4 3 1 2 4 2 1 4 4 5 6 5 9 10 4 3 2 2 11 12 5 5 3 2 4 8 9 9 8 9 5 3 5 7 6 6 7 6 7 7 6 5 8 11 11 9 8 7 1 3 5 2 2 2 5 3 1 2 2 3 3 4 4 4 4 4 4 4 4 3 3 3
20 18 16 16 13 11 10 5 9 11 8 9 11 10 9 7 6 4 1 2 5 3 3 4 5 7 8 6 6 7 2 4 1 4 8 7 2 3 3 3 1 4 7 6 4 5 2 3 3 5 5 6 6 6 6 7 6 5 4 8 11 10 7 5 4 3 4 1 1 1 4 4 2 3 2 3 4 4 4 4 4 4 4 4 3 3 3 3
21 18 18 19 15 16 12 3 8 11 5 8 10 10 11 10 8 4 1 3 6 3 5 2 1 5 7 3 4 6 2 2 5 4 4 3 3 1 3 6 3 1 4 4 3 2 3 4 3 4 5 6 5 6 6 8 7 3 1 1 6 7 7 7 6 5 3 2 1 3 3 5 6 3 2 3 5 5 5 5 6 6 6 5 5 4 4 4
21 20 20 21 19 20 13 3 9 13 6 5 9 13 13 11 9 3 2 5 4 3 4 1 1 2 3 2 1 2 0 1 4 3 2 3 2 1 3 7 6 5 4 4 5 1 2 5 6 7 6 5 5 2 6 11 7 1 2 1 3 3 4 6 5 4 1 1 4 5 4 4 5 2 3 3 4 5 6 8 8 8 8 7 6 6 5 4
23 22 22 22 19 20 16 6 7 11 8 4 9 15 15 12 7 2 1 5 2 3 3 2 3 3 3 4 1 2 1 1 1 2 2 2 2 2 2 3 5 6 3 2 4 1 2 2 3 6 5 4 2 4 2 8 4 2 4 4 5 4 3 3 3 2 2 3 7 5 7 5 4 2 3 2 2 4 4 8 9 9 9 8 7 7 6 5
26 24 24 23 20 21 19 12 11 11 6 7 13 18 16 9 4 3 4 5 1 2 2 2 3 2 7 9 3 0 1 2 2 3 2 2 3 3 1 2 3 5 3 2 1 1 1 0 1 2 2 2 5 5 3 1 2 4 5 4 5 4 3 2 1 1 2 4 3 1 4 5 3 2 3 2 0 0 3 5 8 10 10 9 8 7 7 6
30 27 27 27 25 26 19 12 20 17 7 11 18 18 13 4 1 5 6 3 1 1 3 3 1 4 10 9 4 2 2 2 2 5 5 3 3 3 3 3 3 3 2 2 2 1 1 2 1 1 1 3 5 5 4 3 2 2 3 3 3 2 2 2 2 2 4 4 1 3 0 4 5 2 1 2 2 3 3 5 9 12 12 10 9 8 8 7
32 30 29 30 29 29 21 13 23 21 10 15 18 11 6 2 2 5 3 2 1 2 4 3 2 6 9 4 2 4 3 2 3 4 5 4 5 6 4 5 6 4 4 6 4 2 2 3 2 2 0 2 5 5 4 2 2 2 2 4 4 2 2 3 2 3 4 2 2 1 1 3 6 6 4 2 4 4 3 2 7 12 13 12 10 9 8 7
34 32 31 33 31 32 27 16 18 23 18 18 14 3 2 4 4 5 3 1 0 0 2 3 3 5 8 4 3 4 2 2 5 4 2 3 5 6 2 1 3 1 1 6 5 4 3 1 3 5 2 3 7 6 4 4 5 6 5 5 5 3 2 4 2 1 3 0 2 1 0 2 4 5 5 1 3 2 2 1 2 8 12 12 11 10 8 8
33 34 34 35 33 33 30 18 15 25 25 19 9 1 2 5 3 3 5 3 2 2 2 3 6 7 6 3 3 6 2 1 6 4 3 5 5 6 4 4 5 1 2 4 4 5 5 2 6 8 3 6 10 6 2 5 6 5 3 2 3 3 3 3 2 2 2 1 2 1 1 4 4 1 1 1 1 1 1 1 1 4 8 9 9 9 9 9
32 37 36 36 35 33 31 23 19 26 26 15 5 4 5 6 2 2 5 3 1 1 2 2 6 7 5 1 0 4 3 2 5 4 4 6 5 7 7 7 8 5 3 5 3 3 4 2 3 3 1 5 9 3 3 5 5 2 1 1 3 2 2 1 1 1 1 2 3 3 3 3 1 1 1 1 1 1 1 2 3 5 7 9 8 9 10 10
32 36 33 33 35 35 34 27 24 30 24 10 4 6 6 5 3 3 3 4 3 5 7 4 3 4 3 1 2 4 2 1 5 5 4 4 3 5 4 4 8 9 6 5 3 3 2 1 3 2 1 2 2 2 1 0 2 3 3 4 2 1 0 1 0 2 1 5 3 4 4 2 1 2 2 1 2 2 3 3 5 6 8 10 9 10 10 10
31 29 25 28 33 36 36 31 29 30 19 7 7 7 5 4 4 4 3 3 2 5 8 5 4 5 5 3 3 5 3 2 4 4 4 4 3 5 5 3 6 12 9 3 1 2 3 2 2 1 2 2 2 1 3 3 1 4 4 4 3 1 1 1 3 1 3 6 3 3 6 5 3 2 1 1 4 4 5 5 5 7 9 11 11 11 11 11
28 20 16 24 34 36 37 35 31 23 9 5 10 9 5 5 3 3 4 3 2 3 4 5 5 5 5 5 4 5 6 4 4 4 4 4 3 4 8 4 5 11 9 2 0 1 2 2 2 1 1 3 1 3 4 2 1 1 1 1 2 2 2 3 3 3 4 6 5 4 5 5 5 4 3 6 8 7 7 6 7 9 11 12 12 12 12 12
21 11 6 17 32 35 38 39 28 13 4 5 10 9 4 4 3 3 5 4 3 3 4 4 3 2 3 5 4 5 7 6 7 6 3 4 3 3 6 4 4 6 4 3 3 1 1 3 2 1 1 2 2 4 5 4 2 1 0 1 0 2 2 2 2 1 3 6 6 4 3 3 5 6 8 11 11 9 8 7 9 12 13 13 13 13 13 13
12 4 1 14 30 36 41 36 18 6 5 6 7 6 4 4 3 4 6 5 3 2 4 3 3 3 4 3 1 3 6 5 7 6 3 4 3 3 5 2 4 5 2 3 3 1 2 3 3 3 1 3 4 3 4 6 6 4 4 4 3 1 0 2 2 0 2 5 5 6 7 4 2 3 7 10 7 6 8 8 9 10 12 13 12 12 13 12
5 3 2 16 32 39 35 19 7 5 7 7 7 7 6 4 4 5 4 4 2 1 1 2 4 4 3 3 2 3 4 4 6 4 3 5 4 2 3 2 5 7 4 4 3 2 3 2 3 4 3 5 3 1 1 1 2 4 5 6 6 4 3 3 4 2 1 4 3 4 9 6 0 1 1 3 1 1 5 7 7 7 8 10 10 11 11 9
3 3 3 17 35 38 23 6 4 6 6 6 5 4 4 4 5 6 4 3 2 1 1 1 2 3 3 3 2 4 5 4 5 4 2 3 2 0 1 1 4 7 5 4 2 1 2 1 3 3 3 3 1 3 1 2 1 0 1 3 4 4 5 6 6 2 2 2 0 1 7 6 1 2 1 1 1 2 2 4 5 4 3 5 8 8 7 7
3 2 3 16 32 31 14 4 6 6 5 4 3 3 4 3 5 7 6 6 4 2 3 2 2 3 3 3 2 5 7 4 5 5 2 1 1 1 2 2 1 4 4 3 2 2 2 2 4 3 1 2 2 1 1 1 1 2 1 1 3 3 3 4 3 1 2 4 2 3 7 6 0 1 1 1 2 3 2 4 6 5 3 5 7 6 6 6
2 3 1 10 22 21 10 5 8 9 7 5 5 6 4 1 6 9 10 10 6 4 6 4 3 3 2 2 3 6 7 4 5 4 1 2 2 1 2 2 1 2 2 2 3 4 4 3 5 6 4 3 3 3 3 2 3 3 2 2 3 3 3 1 1 1 4 7 6 5 10 6 1 0 2 1 1 4 4 5 6 6 5 6 7 8 8 8
4 3 1 4 9 9 5 4 6 8 9 8 9 11 7 2 4 6 9 10 5 4 6 3 2 3 2 2 2 3 4 2 3 4 2 2 2 1 3 3 2 1 1 2 2 4 4 3 5 7 7 7 6 4 4 3 3 2 1 3 5 7 8 5 3 5 6 5 6 6 11 7 1 2 3 2 2 4 4 5 5 5 5 5 7 8 9 9
3 2 1 1 2 3 2 0 1 4 9 10 7 9 12 9 2 1 5 8 4 3 4 2 2 3 2 4 4 4 4 1 2 3 3 3 2 1 2 2 2 2 2 1 2 3 2 2 5 7 8 7 3 2 1 2 3 4 4 6 8 9 10 8 5 6 5 2 3 12 14 9 10 7 5 5 5 5 4 3 3 3 5 6 7 7 8 8
1 2 3 3 1 3 3 1 2 2 5 10 6 6 13 12 4 1 3 3 4 5 3 1 3 5 5 7 6 5 5 2 2 3 4 4 2 1 1 1 2 2 2 1 1 2 3 3 6 7 9 7 2 4 3 2 2 4 4 7 9 8 9 10 10 8 4 2 9 17 12 8 17 16 5 6 6 5 4 4 4 5 6 6 6 6 8 8
0 0 1 1 1 4 5 4 6 3 3 7 5 5 10 12 8 6 4 1 2 6 4 0 5 8 9 9 7 5 6 5 3 4 4 3 3 3 1 2 2 3 1 2 1 2 3 5 6 8 10 10 4 5 4 4 5 6 8 13 15 12 11 11 11 12 9 9 15 17 10 9 16 13 3 5 7 6 5 5 4 5 6 6 7 8 9 10
0 1 1 2 1 2 2 4 7 5 3 4 2 3 9 12 12 7 3 2 3 6 6 6 9 10 10 9 7 5 7 7 5 5 5 4 4 4 2 1 1 3 2 3 1 0 3 4 4 8 10 12 7 5 6 6 7 8 11 15 19 19 14 11 12 15 14 15 18 17 14 14 14 11 7 5 5 5 4 3 4 6 7 7 8 9 10 11
1 1 1 1 2 1 1 3 7 5 3 2 2 4 6 10 12 6 2 5 7 7 8 10 10 12 12 11 9 9 10 8 6 5 6 5 4 3 3 3 2 1 1 2 1 1 3 2 3 4 7 9 4 6 7 7 7 9 14 19 21 20 15 12 14 15 14 16 19 17 15 16 13 8 8 5 3 4 4 5 7 7 6 6 8 9 10 11
1 0 1 2 1 2 2 2 4 4 3 3 4 4 5 7 10 6 2 4 4 5 10 13 11 10 10 11 13 13 10 8 8 9 10 9 6 5 4 3 5 5 2 2 2 1 3 2 2 3 6 5 3 7 6 4 3 8 17 22 21 16 13 13 13 14 15 15 15 12 12 14 10 4 5 5 4 6 8 8 6 5 5 6 8 10 11 11
2 1 1 2 2 4 3 3 4 4 3 4 4 5 5 5 6 7 3 1 2 1 5 10 11 8 7 12 15 12 8 7 5 6 7 6 5 5 5 5 7 8 6 4 3 2 4 4 2 3 5 3 4 6 6 6 2 9 12 13 14 13 14 14 12 14 15 11 10 11 12 12 8 3 6 7 6 8 9 7 5 5 6 8 8 9 9 9
Wind_Direction
178 175 169 164 163 164 166 165 163 158 150 141 134 128 123 120 117 117 71 41 33 16 11 11 8 4 360 356 355 353 351 352 14 36 45 19 3 178 164 136 142 125 110 83 120 150 98 72 63 72 93 65 10 348 40 29 354 265 226 242 178 164 129 160 176 165 100 110 124 79 15 314 319 248 307 266 217 252 282 263 252 205 99 83 64 24 7 19
183 181 174 168 165 168 171 169 168 165 157 144 132 120 110 102 96 92 60 32 19 15 10 8 6 3 358 355 356 355 352 356 53 54 41 34 68 126 128 131 138 115 110 112 139 152 137 96 74 63 68 57 359 348 234 354 330 296 155 284 183 151 96 147 165 150 195 9 43 79 170 267 300 355 335 289 263 285 293 273 195 175 126 96 43 29 25 28
185 185 180 176 170 172 174 170 169 162 157 150 142 133 115 99 96 83 54 23 13 13 7 5 4 360 357 358 358 356 352 358 93 46 32 53 95 116 116 120 116 107 96 99 134 119 119 115 98 59 40 54 34 12 248 9 325 318 220 274 99 122 205 186 203 195 217 329 305 270 152 248 265 185 233 286 290 276 284 331 314 265 94 45 23 26 22 29
183 185 184 183 176 175 173 170 169 161 160 160 157 154 137 124 123 103 38 15 5 4 6 3 1 0 1 0 1 360 346 315 135 38 31 76 113 115 113 111 104 102 82 87 119 111 115 107 82 49 32 97 52 323 32 24 342 157 247 323 81 106 237 166 195 217 209 219 272 284 181 246 213 170 236 265 292 269 235 21 356 333 13 15 25 25 17 29
182 185 185 187 182 178 177 173 171 170 169 167 171 170 161 159 158 158 9 3 355 0 4 359 3 3 2 7 10 1 332 278 138 177 99 111 132 120 125 118 103 101 100 128 119 116 118 100 84 70 32 110 108 203 102 37 354 184 167 15 89 166 278 120 160 199 160 186 237 242 245 277 121 215 219 233 282 312 32 15 14 17 34 34 31 22 21 31
188 189 189 193 190 185 184 181 178 182 183 180 181 179 179 173 169 244 319 350 343 351 355 356 7 5 8 15 8 0 318 285 146 195 161 141 162 134 138 129 108 110 121 139 131 129 116 103 157 137 81 119 153 73 92 77 311 260 138 74 157 193 274 90 141 180 167 212 241 244 292 347 250 263 206 223 278 31 41 16 36 51 55 53 46 34 31 33
196 196 197 197 194 192 189 188 187 189 189 189 187 182 189 179 201 281 305 328 338 345 351 354 360 6 17 17 11 35 326 294 190 196 185 174 182 157 151 141 126 124 136 149 144 152 135 153 188 152 157 143 172 125 100 151 229 274 210 139 199 199 243 255 172 204 195 237 261 307 304 259 262 293 215 202 81 72 70 63 65 69 69 62 55 44 36 35
204 201 200 201 200 199 195 192 189 190 192 195 195 185 200 210 241 293 304 317 339 338 340 349 359 11 16 24 23 14 276 246 171 182 190 186 179 167 161 157 158 150 170 178 164 169 159 171 168 175 216 72 175 152 131 230 192 242 275 122 160 217 246 249 236 245 229 245 260 252 267 261 267 295 234 128 94 94 87 77 71 75 67 57 49 41 36 34
231 220 199 202 205 204 200 197 190 189 195 199 202 197 214 230 249 288 300 318 334 332 341 348 358 3 2 62 71 300 270 162 167 175 176 181 177 171 173 180 189 186 188 183 177 181 178 182 166 191 196 91 183 150 155 243 211 215 256 134 242 255 269 268 252 250 238 243 204 244 266 255 131 234 192 91 97 108 99 79 62 67 56 48 43 35 32 29
221 227 226 217 206 205 199 197 192 190 205 210 215 214 222 234 246 272 290 316 327 336 341 346 0 11 35 109 172 279 193 147 161 160 152 153 149 159 188 204 199 202 188 170 178 178 183 182 147 160 101 104 176 141 165 239 41 107 139 263 262 272 285 261 255 265 265 244 209 248 273 214 119 230 194 99 113 134 112 84 59 65 59 47 43 37 31 29
209 204 233 233 214 209 200 199 198 198 215 224 231 227 228 235 240 262 282 308 333 343 342 356 2 14 90 146 247 261 169 165 170 157 148 140 128 156 213 214 202 204 187 171 184 178 165 155 138 132 155 140 155 146 187 200 75 94 298 276 256 265 272 249 252 282 296 249 202 235 261 149 153 220 168 96 141 169 123 93 72 70 69 61 55 48 41 33
233 235 238 236 229 222 208 208 206 209 226 234 240 239 238 238 245 269 281 308 330 336 335 358 346 161 109 237 247 236 196 189 183 169 168 173 284 263 224 209 197 200 194 181 184 177 153 155 152 128 95 157 158 152 162 130 56 129 298 296 279 274 273 247 221 332 291 243 151 230 246 172 170 173 73 93 160 164 138 104 88 82 75 71 66 59 51 37
241 259 275 269 255 237 220 217 213 216 229 236 250 251 244 249 265 279 291 311 319 334 338 345 175 140 151 268 228 222 217 205 199 201 225 255 270 230 197 187 181 182 184 175 171 167 156 162 160 97 97 171 150 113 136 128 314 226 195 312 299 288 280 138 115 12 308 341 126 253 273 185 149 124 70 118 168 170 160 120 101 94 86 72 66 62 54 42
233 254 273 278 276 255 234 226 216 220 232 243 260 254 251 264 275 289 309 317 322 318 316 146 160 145 190 263 209 213 216 214 222 230 242 226 175 152 150 152 157 156 148 148 155 154 153 151 133 103 90 349 105 138 145 132 248 277 258 258 285 292 285 121 124 293 303 9 152 246 272 261 136 122 64 121 192 208 202 138 115 96 90 75 66 67 57 50
231 238 252 273 281 270 251 230 215 219 226 241 258 253 255 269 283 310 312 310 334 248 114 127 157 149 247 258 224 220 216 216 222 219 212 186 163 135 132 138 129 125 124 126 135 135 136 137 130 120 100 20 149 164 189 189 177 7 271 243 191 261 271 133 110 295 289 63 159 238 259 278 139 135 57 41 221 224 217 149 112 96 91 84 76 71 65 63
224 226 243 270 280 278 266 236 217 207 212 242 251 239 251 285 305 315 291 241 168 150 113 140 154 163 271 250 181 212 213 207 205 204 193 177 175 149 133 126 111 107 108 105 111 114 111 111 105 59 108 165 178 179 226 245 228 163 242 263 240 238 279 312 110 95 311 109 194 239 268 293 138 143 72 46 216 220 204 154 118 114 97 93 92 76 71 70
219 224 242 263 273 281 272 234 208 186 203 239 227 216 244 289 316 78 103 130 135 117 106 144 129 149 255 211 204 224 184 183 180 180 179 174 176 155 134 116 99 105 105 101 107 106 79 66 110 228 120 158 174 177 228 246 242 194 197 252 260 243 270 287 190 102 57 237 233 220 253 278 188 153 174 48 174 219 198 151 132 131 121 118 107 88 74 58
220 228 243 252 261 279 277 234 190 173 218 238 197 167 150 130 118 120 140 139 112 94 103 135 132 226 237 180 193 169 116 149 156 155 165 160 160 155 138 118 122 126 119 110 109 110 18 37 216 216 152 174 178 183 220 242 263 267 227 240 260 237 238 262 269 87 80 266 258 240 244 266 254 179 173 102 179 218 187 132 136 145 141 140 119 92 68 55
221 227 240 247 250 270 278 231 178 176 238 246 153 122 105 89 90 127 147 146 148 173 212 177 177 237 259 165 137 109 110 133 141 146 151 145 151 149 125 120 128 135 145 160 172 151 161 149 177 217 200 200 192 201 227 249 321 290 260 262 269 258 250 258 271 77 59 284 263 255 258 265 267 234 170 132 155 179 152 134 147 161 156 148 123 94 72 61
222 226 229 236 244 265 271 208 175 181 237 232 143 129 126 137 190 197 158 188 221 231 355 180 192 235 355 133 132 130 125 129 135 154 156 152 148 134 106 115 119 142 175 176 158 138 218 200 200 218 216 208 202 210 232 353 52 258 246 254 255 258 267 269 276 90 90 285 266 256 265 266 269 264 166 123 154 163 160 168 176 175 164 152 130 107 90 72
221 228 233 237 244 259 258 202 174 177 243 215 153 154 201 191 209 261 185 226 233 236 258 211 210 265 275 129 153 153 138 134 137 159 163 159 155 154 153 156 163 179 184 113 109 109 223 220 221 222 215 194 208 213 219 221 213 231 247 255 253 247 262 275 289 79 115 260 273 269 271 268 265 262 130 119 176 175 175 186 187 174 155 144 138 125 104 92
220 225 232 238 245 253 255 207 176 182 253 217 176 222 278 261 253 6 313 262 240 225 236 232 241 257 238 154 175 169 163 184 170 175 170 161 170 191 168 166 194 187 139 125 136 164 209 229 232 202 102 88 107 182 199 225 232 226 231 253 261 252 268 276 266 84 137 229 278 297 289 278 270 250 108 115 183 157 187 199 181 169 161 158 144 131 128 125
224 222 224 231 237 244 245 200 174 193 243 223 205 224 259 304 273 86 232 280 278 210 206 204 218 226 206 199 191 180 202 205 188 191 176 166 173 192 164 178 197 154 149 182 193 203 208 240 235 152 131 156 152 153 178 210 231 221 221 241 249 235 260 261 188 98 151 222 299 308 294 280 271 217 113 106 137 125 135 131 118 140 148 144 131 125 137 131
227 223 223 226 228 233 223 183 178 220 234 233 233 219 206 270 178 143 226 274 274 216 199 206 211 217 201 188 183 187 209 216 194 189 177 174 158 146 180 181 172 161 188 199 206 222 219 32 121 144 156 192 195 178 185 216 233 215 218 234 247 236 231 246 293 20 232 191 257 278 278 270 262 233 135 117 140 142 139 142 138 131 123 129 130 117 103 101
227 224 219 218 224 218 187 173 207 224 221 232 239 221 200 188 169 163 227 283 261 227 202 203 194 212 190 153 167 178 198 214 203 161 172 182 159 139 175 155 182 204 192 186 210 239 234 94 120 141 152 194 206 206 201 218 246 235 218 226 241 249 245 242 279 318 264 216 157 270 282 256 163 242 200 141 175 166 151 171 163 146 151 162 157 136 116 100
226 222 211 210 216 192 168 188 219 210 208 231 234 207 191 186 157 152 146 300 263 200 137 180 181 183 168 146 152 141 144 225 153 89 156 185 173 136 175 144 199 228 170 156 213 249 216 117 142 159 163 175 205 235 202 191 241 263 223 217 229 239 242 227 194 214 260 289 124 252 285 269 261 273 193 151 213 188 163 187 174 169 179 175 166 149 143 133
225 217 205 208 207 180 168 203 193 175 191 235 221 192 189 182 160 167 200 284 267 166 126 180 199 167 158 152 162 146 183 188 110 99 143 165 162 130 213 179 156 197 142 144 224 229 145 141 161 180 181 178 209 242 184 175 226 259 56 176 202 209 211 201 192 212 260 347 204 206 250 272 274 279 143 167 224 204 185 194 185 189 191 176 170 163 157 150
223 214 203 207 204 185 178 169 165 173 200 230 197 186 182 173 168 172 212 251 273 97 105 146 73 90 123 126 150 133 331 90 126 155 76 79 148 149 225 198 172 160 150 189 221 241 127 170 181 169 175 199 215 257 158 179 215 310 48 64 145 171 188 180 189 215 252 319 251 201 164 255 265 218 156 177 233 234 202 194 194 194 188 179 177 171 161 147
222 213 204 205 204 194 194 193 174 191 217 208 176 176 167 162 165 92 151 230 238 90 79 118 122 67 102 137 98 71 75 8 71 140 105 97 88 71 211 194 146 135 113 243 232 14 54 213 201 169 178 201 167 34 135 190 204 122 116 98 88 83 93 133 195 187 139 239 256 204 172 233 273 211 199 186 255 266 205 187 192 190 185 183 179 172 161 149
221 213 205 199 197 196 200 216 213 197 202 185 167 163 156 151 156 143 193 219 186 94 83 129 153 137 150 154 154 144 103 32 59 105 117 126 78 50 83 97 95 126 105 337 285 49 72 329 292 190 183 146 108 61 33 86 97 142 151 118 98 93 90 94 134 143 210 235 254 198 181 231 268 238 227 204 90 74 154 175 183 181 184 184 180 172 163 159
221 213 204 195 194 193 189 215 215 194 176 174 159 151 150 129 114 177 200 237 1 121 141 142 144 156 165 163 157 166 112 68 143 148 139 139 122 113 148 153 124 127 158 230 215 124 140 187 210 166 100 111 116 90 59 66 102 172 177 148 140 126 136 162 138 172 242 234 93 42 156 223 234 229 200 140 141 162 172 183 181 182 186 183 179 171 165 167
221 214 205 197 198 195 190 211 207 189 172 167 154 141 148 151 212 197 216 315 232 190 153 143 171 172 173 161 109 146 136 119 168 163 147 155 167 165 180 184 161 158 209 208 191 148 203 208 155 107 139 190 153 117 90 99 159 210 191 176 199 196 184 217 189 195 243 238 83 54 166 215 236 251 256 185 157 179 183 181 183 183 184 181 176 170 166 169
222 216 207 201 201 200 200 211 199 185 172 160 156 140 144 178 219 209 208 252 248 192 93 100 123 153 163 159 145 157 137 142 171 174 149 154 181 182 208 234 177 194 210 182 179 174 194 202 152 164 187 203 190 176 162 166 181 195 186 185 204 197 211 231 205 226 269 218 101 72 236 227 231 251 261 206 118 132 150 149 214 189 185 181 172 166 166 169
225 216 207 205 206 206 205 202 190 181 167 153 157 154 150 194 214 176 198 220 356 14 55 94 111 132 167 181 170 171 166 171 171 169 162 163 183 193 204 219 210 240 79 152 186 191 201 218 170 175 158 169 192 204 128 136 163 187 181 209 227 205 224 237 212 240 288 76 135 132 235 213 184 150 327 355 41 14 236 225 252 213 189 169 156 159 167 175
224 213 206 203 204 208 205 198 189 178 163 149 163 167 186 212 181 150 194 178 132 55 62 90 121 140 184 234 218 200 219 207 171 166 175 176 189 194 189 195 198 196 164 171 181 176 220 270 130 126 39 171 183 184 72 121 150 160 81 235 245 228 211 255 338 323 342 300 213 187 235 229 173 101 97 320 270 173 200 209 198 207 183 159 159 172 178 183
216 206 202 199 200 205 204 197 187 177 166 154 177 184 206 218 166 180 188 136 164 156 129 140 140 143 192 200 196 222 262 122 163 181 199 201 226 203 186 192 190 194 194 178 165 158 203 283 89 82 36 155 175 148 106 175 159 141 171 197 199 357 161 183 241 81 79 270 235 172 230 237 156 226 171 155 266 182 173 194 188 190 178 173 183 186 186 187
203 195 197 199 201 202 200 196 184 177 174 177 196 198 209 212 176 172 163 121 156 153 145 178 192 169 187 188 191 201 189 125 162 195 191 188 227 194 189 233 188 195 211 208 175 199 192 137 93 97 134 90 325 159 91 8 43 141 187 186 125 51 337 243 248 209 204 254 257 170 221 227 197 230 142 197 251 218 188 184 183 186 184 192 199 191 187 188
190 187 203 205 202 198 195 193 184 177 182 201 208 214 198 196 189 146 149 139 122 150 175 208 198 179 189 190 183 181 181 171 168 186 176 183 230 170 170 201 184 193 213 214 190 235 206 168 109 16 148 109 278 204 125 59 6 101 228 148 104 204 201 174 226 254 235 259 272 198 210 234 218 200 160 196 225 218 187 172 190 199 196 202 204 191 186 187
177 180 225 207 201 196 189 187 181 177 205 204 212 224 191 182 194 151 158 149 122 158 193 215 199 180 195 185 163 164 181 180 165 176 189 189 217 170 170 196 180 186 198 179 201 172 170 221 165 93 301 127 175 215 180 158 126 72 184 143 43 274 229 175 196 267 254 264 283 260 241 245 212 180 172 190 207 201 175 176 203 208 205 206 201 189 187 192
167 183 270 185 192 190 183 180 177 178 206 204 215 217 179 175 184 171 175 163 133 169 193 203 188 186 190 175 135 166 182 178 167 183 210 185 190 195 196 197 149 156 142 161 204 152 145 233 182 118 303 199 185 216 198 171 155 158 180 175 180 199 330 261 221 156 259 259 274 279 279 273 172 159 181 188 198 186 170 185 207 210 211 211 202 194 192 192
159 236 179 164 177 178 173 174 185 187 198 213 222 212 191 177 160 167 190 176 142 162 185 188 187 188 176 162 179 176 162 168 177 192 215 195 207 212 196 182 147 147 133 141 190 198 168 211 174 152 185 198 182 34 319 215 155 171 188 186 190 181 166 220 223 165 233 258 255 269 282 284 140 111 171 145 114 180 183 203 213 212 215 212 204 201 195 187
172 228 169 157 167 169 165 180 201 182 208 215 208 197 173 162 160 162 172 169 144 146 162 178 183 182 179 172 173 158 148 165 190 197 219 201 211 305 343 342 145 143 130 131 161 171 108 106 171 166 174 183 79 40 276 283 340 175 229 197 189 185 188 217 228 192 171 227 286 282 278 282 132 95 60 86 320 295 256 251 244 238 231 216 212 205 188 174
185 192 140 159 166 166 167 208 186 186 224 192 143 140 148 163 174 160 169 185 174 152 174 191 184 188 202 181 150 160 162 168 190 193 226 197 154 13 342 343 118 131 118 123 139 136 129 165 188 182 119 100 75 76 190 235 206 209 245 191 187 195 206 229 237 184 203 214 195 227 253 260 156 74 1 211 252 267 255 247 243 243 233 212 211 205 184 167
135 121 104 177 178 175 179 204 192 199 209 171 169 186 169 189 183 170 181 188 179 173 181 185 184 186 193 161 150 171 172 175 192 189 192 181 164 56 21 356 9 126 148 170 165 174 180 171 183 194 188 169 184 198 188 187 210 220 198 172 201 186 133 92 90 143 234 221 195 228 254 254 164 161 262 219 243 257 240 218 221 227 215 199 200 200 191 175
123 119 27 205 196 193 198 205 195 200 199 192 198 192 180 203 203 188 185 179 173 179 172 173 177 149 139 142 134 169 170 159 180 175 146 171 184 33 32 9 13 103 254 264 154 163 180 170 180 195 202 203 203 204 205 189 177 201 187 177 207 195 169 169 197 210 228 204 158 215 250 253 209 165 185 204 239 243 228 205 209 221 210 198 205 201 191 184
141 147 150 180 236 245 254 284 173 196 193 191 200 195 191 198 218 275 189 180 184 164 131 138 152 117 141 165 150 176 188 90 83 144 162 178 186 357 357 17 79 72 341 315 134 124 123 201 211 211 223 223 188 132 165 118 132 168 184 188 201 201 191 198 218 218 220 164 187 233 241 254 266 245 178 173 216 218 208 196 195 214 209 205 213 207 196 198
132 154 159 152 184 227 236 217 181 195 188 185 185 186 192 194 183 146 212 210 187 157 109 58 159 160 178 171 160 185 188 137 86 148 171 177 142 61 330 354 80 60 35 44 9 70 113 215 222 216 239 245 139 103 138 170 200 202 214 226 222 202 185 198 220 223 203 191 249 247 234 234 261 261 201 164 209 220 212 212 196 197 206 207 204 197 198 205
329 121 181 144 146 205 216 193 168 151 156 180 182 172 183 188 181 179 196 261 180 168 146 130 194 190 183 169 162 169 168 165 177 177 173 169 145 130 74 17 12 350 44 115 9 66 156 223 206 192 233 246 196 130 153 210 247 241 242 250 247 231 198 191 219 233 223 227 248 257 252 239 254 263 230 179 208 210 208 214 200 195 207 205 193 192 202 206
76 60 321 342 38 180 192 142 144 146 147 156 160 171 183 190 192 186 152 127 186 194 182 189 199 191 181 170 157 154 173 177 182 186 178 170 164 154 135 114 43 343 17 132 112 161 201 227 180 178 229 247 223 165 167 209 240 246 245 247 248 245 225 198 216 231 230 236 248 260 270 263 257 265 273 249 209 187 186 189 191 202 206 197 193 200 207 207
172 162 143 53 50 67 59 113 139 150 152 149 181 186 181 195 197 186 141 169 182 191 196 202 197 183 179 176 173 188 195 175 151 163 166 163 172 168 171 180 149 64 17 145 124 283 226 213 113 155 227 250 215 151 172 209 229 245 253 250 246 246 237 219 224 231 231 239 247 255 266 265 263 268 271 261 171 161 198 204 204 207 196 185 193 205 211 214
110 335 150 120 115 146 130 126 138 144 166 179 189 177 169 196 194 172 178 220 182 172 197 199 186 174 177 185 195 203 194 164 150 161 166 173 184 182 188 187 149 140 160 173 142 171 209 199 85 136 224 243 132 134 167 179 206 249 256 253 246 239 230 223 221 226 229 234 242 249 253 258 263 257 233 221 177 192 216 215 214 215 198 196 205 209 213 218
114 359 195 128 128 164 160 144 151 164 186 177 167 165 165 180 180 162 163 300 15 337 226 195 169 156 176 199 207 205 179 162 161 161 165 169 169 173 181 172 158 159 162 163 162 155 171 176 146 164 216 235 107 133 148 127 186 249 249 247 241 231 225 223 221 225 225 224 234 240 242 252 259 210 203 211 200 213 226 222 218 222 213 211 215 218 221 222